Regional Weather Roundup
Issued by NWS

Home | Current Version | Previous Version | Text Only | Print | Product List | Glossary On
Versions: 1 2 3 4 5 6 7 8 9 10 11 12 13 14 15 16 17 18 19 20 21 22 23 24 25 26 27 28 29 30 31 32 33 34 35 36 37 38 39 40 41 42 43 44 45 46 47 48 49 50
000
ASUS43 KMPX 022010
RWRMN
WEATHER ROUNDUP FOR MINNESOTA
NATIONAL WEATHER SERVICE TWIN CITIES/CHANHASSEN MN
200 PM CST FRI DEC 02 2016


NOTE: "FAIR" INDICATES FEW OR NO CLOUDS BELOW 12,000 FEET WITH NO
SIGNIFICANT WEATHER AND/OR OBSTRUCTIONS TO VISIBILITY. N/A MEANS
CURRENT SKY AND/OR WEATHER CONDITIONS ARE NOT AVAILABLE.

MNZ060>063-068>070-022100-
   Twin Cities Metro

CITY           SKY/WX    TMP DP  RH WIND       PRES   REMARKS
TWIN CITIES    CLOUDY    33  22  63 NW7       30.24R WCI  27
ST PAUL        CLOUDY    33  25  72 NW9       30.25S WCI  25
CRYSTAL        CLOUDY    32  23  69 NW7       30.23R WCI  26
BLAINE         CLOUDY    34  27  75 W8        30.23R WCI  27
LAKEVILLE      CLOUDY    30  25  80 W7        30.23S WCI  23
EDEN PRAIRIE   CLOUDY    33  23  66 W6        30.23R WCI  28
SOUTH ST PAUL  CLOUDY    33  24  70 W5        30.24R WCI  29
LAKE ELMO      CLOUDY    32  27  80 NW5       30.24R WCI  27
$$
MNZ001>005-007-008-013>017-022>024-027-028-022100-
   Northwest Minnesota

CITY           SKY/WX    TMP DP  RH WIND       PRES   REMARKS
BEMIDJI        CLOUDY    24  21  89 NW8       30.22R WCI  15
HALLOCK        CLOUDY    30  25  80 NW3       30.25S
ROSEAU         CLOUDY    27  21  80 W6        30.23S WCI  20
WARROAD        CLOUDY    25  21  86 SW5       30.23S WCI  19
THIEF RVR FALL CLOUDY    27  22  81 W10       30.25S WCI  17
CROOKSTON      CLOUDY    30  23  74 N8        30.27R WCI  23
FOSSTON        CLOUDY    25  19  80 W10       30.24R WCI  15
DETROIT LAKES  CLOUDY    27  21  80 N5        30.24S WCI  21
MOORHEAD       CLOUDY    28  21  74 NW8G16    30.27S WCI  20
PARK RAPIDS    CLOUDY    26  20  77 W7        30.21S WCI  18
$$
MNZ006-009>011-018-025>026-022100-
   North Central Minnesota

CITY           SKY/WX    TMP DP  RH WIND       PRES   REMARKS
BAUDETTE       CLOUDY    25  20  81 NW3       30.22R
FLAG ISLAND    CLOUDY    21  19  93 NW8       30.22S WCI  12
INTL FALLS     CLOUDY    25  23  92 W9        30.20R WCI  15
WASKISH        CLOUDY    25  21  86 NW5       30.22S WCI  19
BIG FORK       CLOUDY    25  21  86 CALM      30.21S
LONGVILLE      CLOUDY    25  21  86 W8        30.22R WCI  16
GRAND RAPIDS   CLOUDY    26  22  84 W8        30.22R WCI  18
CRANE LAKE     CLOUDY    27  23  86 CALM      30.21S
ORR            CLOUDY    27  21  80 CALM      30.17R
COOK           CLOUDY    27  23  86 W6        30.19R WCI  20
$$
MNZ012-019>021-037-022100-
   Northeast Minnesota

CITY           SKY/WX    TMP DP  RH WIND       PRES   REMARKS
DULUTH         CLOUDY    28  22  78 NW9       30.18R WCI  19
ELY            CLOUDY    25  23  93 W6        30.17R WCI  18
HIBBING        CLOUDY    26  23  88 NW5       30.19R WCI  20
EVELETH        CLOUDY    28  23  84 NW3       30.19R
DULUTH HARBOR  CLOUDY    30  25  80 CALM      30.23R
TWO HARBORS    CLOUDY    32  25  74 W5        30.17R WCI  27
SILVER BAY     CLOUDY    32  27  80 NW6       30.15S WCI  26
GRAND MARAIS     N/A     34  25  69 VRB3      30.17R
G MARAIS ARPRT CLOUDY    27  19  74 NW7       30.12R WCI  19
$$
MNZ029>031-032-039>041-046>048-054>057-064-022100-
   West Central Minnesota

CITY           SKY/WX    TMP DP  RH WIND       PRES   REMARKS
FERGUS FALLS   CLOUDY    27  19  74 N9        30.30R WCI  17
WHEATON        CLOUDY   N/A N/A N/A NW6       30.29S
MORRIS         CLOUDY    28  21  74 N9        30.25S WCI  20
ALEXANDRIA     CLOUDY    27  22  81 W7        30.24R WCI  19
ELBOW LAKE     CLOUDY    26  21  80 NW7       30.26S WCI  19
WADENA         CLOUDY    25  21  86 NW8       30.22S WCI  16
GLENWOOD       CLOUDY    27  21  80 NW8       30.24S WCI  18
APPLETON       CLOUDY    30  21  69 NW6       30.27R WCI  24
BENSON         CLOUDY    28  21  74 N6        30.26R WCI  22
ORTONVILLE     CLOUDY    28  21  74 CALM      30.26S
MADISON        CLOUDY    32  25  74 NW6       30.27S WCI  26
WILLMAR        CLOUDY    28  23  80 NW8       30.26S WCI  20
$$
MNZ033>034-036-042>043-049>051-058-059-022100-
   Central Minnesota

CITY           SKY/WX    TMP DP  RH WIND       PRES   REMARKS
ST CLOUD       CLOUDY    30  24  78 NW9       30.24R WCI  22
PAYNESVILLE    CLOUDY    29  24  79 NW7       30.24S WCI  22
AITKIN         CLOUDY    30  21  69 NW3       30.20S
PINE RIVER     CLOUDY    27  21  80 NW3       30.25R
BRAINERD       CLOUDY    27  21  78 NW7       30.22S WCI  19
STAPLES        CLOUDY    25  21  86 NW8       30.22S WCI  16
LONG PRAIRIE   CLOUDY    28  21  74 W6        30.24R WCI  22
LITTLE FALLS   CLOUDY    28  21  74 NW6       30.23S WCI  22
LITCHFIELD     CLOUDY    30  25  80 W7        30.24S WCI  23
BUFFALO        CLOUDY    32  24  73 W5        30.25R WCI  27
MAPLE LAKE     CLOUDY    32  26  78 W6        30.24S WCI  27
$$
MNZ037-044-045-052-053-022100-
   East Central Minnesota

CITY           SKY/WX    TMP DP  RH WIND       PRES   REMARKS
PRINCETON      CLOUDY    30  25  80 W6        30.24R WCI  24
MORA           CLOUDY    30  25  80 NW6       30.24R WCI  24
CAMBRIDGE      CLOUDY    32  21  64 NW8       30.22R WCI  25
RUSH CITY      CLOUDY    30  25  80 W6        30.23S WCI  24
MOOSE LAKE     CLOUDY    30  25  80 NW5       30.19S WCI  25
HINCKLEY       CLOUDY    32  27  80 W3        30.22S
CLOQUET        CLOUDY    28  21  74 NW8       30.19R WCI  20
MCGREGOR       CLOUDY    30  25  80 NW6       30.21R WCI  24
$$
MNZ071>073-080-081-089-090-097-098-022100-
   Southwest Minnesota

CITY           SKY/WX    TMP DP  RH WIND       PRES   REMARKS
MONTEVIDEO     CLOUDY    28  27  93 N6        30.28S WCI  22
GRANITE FALLS  CLOUDY    31  24  74 W7        30.28S WCI  24
CANBY          CLOUDY    31  23  72 CALM      30.27S
MARSHALL       CLOUDY    29  24  82 N9        30.26S WCI  20
REDWOOD FALLS  CLOUDY    30  20  66 W12       30.26S WCI  20
OLIVIA         CLOUDY    30  23  74 NW8       30.25S WCI  23
PIPESTONE      CLOUDY    30  23  74 W9        30.23S WCI  22
WINDOM         CLOUDY    28  25  86 CALM      30.25S
WORTHINGTON    CLOUDY    31  23  72 NW12      30.25S WCI  22
JACKSON        CLOUDY    28  23  80 NW8       30.25S WCI  20
TRACY          CLOUDY    31  26  81 NW6       30.25S WCI  25
SLAYTON        CLOUDY    29  24  80 NW7       30.24S WCI  22
$$
MNZ065>067-074>077-082>085-091>093-022100-
   South Central Minnesota

CITY           SKY/WX    TMP DP  RH WIND       PRES   REMARKS
MANKATO        CLOUDY    29  23  78 NW9       30.26S WCI  20
NEW ULM        CLOUDY    28  21  74 NW13      30.26S WCI  18
ST JAMES       CLOUDY    30  23  74 NW9       30.27S WCI  22
FAIRMONT       CLOUDY    31  24  75 NW10      30.26S WCI  22
GLENCOE        CLOUDY    31  26  81 W6        30.24S WCI  25
FARIBAULT      CLOUDY    30  23  74 W9        30.24S WCI  22
OWATONNA       CLOUDY    30  21  69 W9        30.24S WCI  22
WASECA         CLOUDY    32  27  80 W9        30.25S WCI  24
ALBERT LEA     CLOUDY    34  27  75 W5        30.24R WCI  30
$$
MNZ078>079-086>088-094>096-022100-
   Southeast Minnesota

CITY           SKY/WX    TMP DP  RH WIND       PRES   REMARKS
ROCHESTER      CLOUDY    30  23  75 NW7       30.22S WCI  23
RED WING       CLOUDY    34  21  60 W3        30.23R
STANTON        CLOUDY    33  24  69 NW6       30.23S WCI  28
DODGE CENTER   CLOUDY    28  21  74 CALM      30.22S
WINONA         CLOUDY    34  25  69 NW9       30.24S WCI  26
AUSTIN         CLOUDY    30  23  74 NW6       30.23S WCI  24
PRESTON        CLOUDY    30  22  72 NW9       30.22S WCI  22
$$
ABBREVIATIONS USED IN REMARKS
   TC - TEMPERATURES IN CELSIUS
  WCI - WIND CHILL INDEX
   HX - HEAT INDEX
  VSB - VISIBILITY
$$




USA.gov is the U.S. government's official web portal to all federal, state and local government web resources and services.